Powrót do katalogu

COSMOS 2390 DEB

LostPO
NORAD 27533·DEBRIS·🇷🇺 Russia

Wystrzelony Jul 8, 2002 z Plesetsk Cosmodrome

Loading…

Następne Przeloty (najbliższe 24 godziny)

TLE

NieaktualneSource: Space-Track

Epoka: Sep 26, 2013, 06:53 UTC

1 27533U 02036D   13269.28690913 +.00000015 +00000-0 +33310-4 0  9990
2 27533 082.4878 009.6511 0020933 333.8725 023.5706 12.44783558500554

Śledź COSMOS 2390 DEB w czasie rzeczywistym z AllMySat

Download on the App Store